Terug naar catalogus

YAOGAN-35 04C

ActiefMilitairVLEO
NORAD 53526·PAYLOAD·🇨🇳 China

Gelanceerd Aug 19, 2022 vanaf Xichang Satellite Launch Center

Loading…

Volgende Passages (komende 24 uur)

TLE

VersSource: Space-Track

Epoch: Sep 14, 2026, 23:25 UTC

1 53526U 22100E   26257.97606257  .00006646  00000-0  27886-3 0  9996
2 53526  34.9943 231.9061 0008596 154.9659 205.1474 15.22762257226657

Volg YAOGAN-35 04C in realtime met AllMySat

Download on the App Store